Regional Weather Roundup
Issued by NWS

Home | Current Version | Previous Version | Text Only | Print | Product List | Glossary On
Versions: 1 2 3 4 5 6 7 8 9 10 11 12 13 14 15 16 17 18 19 20 21 22 23 24 25 26 27 28 29 30 31 32 33 34 35 36 37 38 39 40 41 42 43 44 45 46 47 48 49 50
000
ASUS44 KJAN 281303
RWRMS

MISSISSIPPI HOURLY WEATHER ROUNDUP
NATIONAL WEATHER SERVICE JACKSON MS
800 AM CDT THU MAY 28 2015

NOTE: "FAIR: INDICATES FEW OR NO CLOUDS BELOW 12,000 FEET WITH NO
SIGNIFICANT WEATHER AND/OR OBSTRUCTIONS TO VISIBILITY.

MSZ001>002-007>008-010>013-018>021-025>028-034>036-281400-
NORTHWEST MISSISSIPPI

CITY           SKY/WX    TMP DP  RH WIND       PRES   REMARKS
CLARKSDALE     CLOUDY    68  68 100 MISG      30.15S
CLEVELAND      CLOUDY    70  70 100 S3        30.13S
GREENWOOD      CLOUDY    69  66  90 VRB3      30.15R
GREENVILLE     FOG       70  70 100 SE3       30.12F VSB 3/4
OLIVE BRANCH   CLOUDY    70  70 100 CALM      30.17R
OXFORD         CLOUDY    66  64  94 SE3       30.18R
TUNICA         CLOUDY    70  68  94 CALM      30.16S
$$

MSZ003>006-009-014>017-022>024-029>033-037>039-281400-
NORTHEAST MISSISSIPPI

CITY           SKY/WX    TMP DP  RH WIND       PRES   REMARKS
COLUMBUS AFB   CLOUDY    70 N/A N/A SE7       30.17R
CORINTH        CLOUDY    66  64  94 CALM      30.19R FOG
GOLDN TRIANGLE CLOUDY    70  64  83 S7        30.16R FOG
STARKVILLE     CLOUDY    68  68 100 SE3       30.17R FOG
TUPELO         CLOUDY    69  66  90 CALM      30.18R
$$

MSZ040-058-281400-
CENTRAL MISSISSIPPI

CITY           SKY/WX    TMP DP  RH WIND       PRES   REMARKS
JACKSON INTL   CLOUDY    71  68  90 S7        30.15R
JACKSON HAWKNS SUNNY     71  67  87 E5        30.15
MERIDIAN KEY   CLOUDY    69  67  93 CALM      30.16R
MERIDIAN NAS   CLOUDY    70  68  94 SE3       30.16S FOG
RAYMOND        FAIR      70  66  88 CALM      30.14S
VICKSBURG      MOSUNNY   71  68  90 S5        30.13S
$$

MSZ059>079-281400-
SOUTH MISSISSIPPI

CITY           SKY/WX    TMP DP  RH WIND       PRES   REMARKS
BROOKHAVEN     CLOUDY    66  66 100 CALM      30.16S
HATTIESBURG    CLOUDY    71  70  96 CALM      30.15R FOG
MCCOMB         SUNNY     70  67  90 CALM      30.13S
NATCHEZ        SUNNY     70  66  88 CALM      30.13S
PINE BELT      CLOUDY    70 N/A N/A CALM      30.16R VSB 1/2
$$

MSZ080>082-281400-
COASTAL MISSISSIPPI

CITY           SKY/WX    TMP DP  RH WIND       PRES   REMARKS
BAY ST LOUIS   MOSUNNY   72  68  88 MISG      30.12R
BILOXI           N/A    N/A N/A N/A E3          N/A
PASCAGOULA     PTSUNNY   76  73  91 N5        30.13R
GULFPORT       MOSUNNY   75  72  90 E3        30.11S
$$


USA.gov is the U.S. government's official web portal to all federal, state and local government web resources and services.